Location: Star Dogged Moon Observatory
(29.7756°N, 82.0783°W)
Time: 02:02:23
(UTC-04:00)

ARGOS - Visible Passes

Search period start: 29 April 2016 00:00
Search period end: 09 May 2016 00:00
Orbit: 821 x 834 km, 98.7° (Epoch: 27 April)

Date Brightness Start Highest point End Pass type
(mag) Time Alt. Az. Time Alt. Az. Time Alt. Az.
29 Apr 5.8 00:11:52 14° WNW 00:11:52 14° WNW 00:12:54 10° NW visible
29 Apr 4.6 22:11:30 23° NE 22:11:30 23° NE 22:14:42 10° NNE visible
29 Apr 5.3 23:53:01 21° NW 23:53:01 21° NW 23:55:07 10° NW visible
30 Apr 4.9 21:52:40 16° ENE 21:52:40 16° ENE 21:55:19 10° NNE visible
30 Apr 4.8 23:34:10 29° NW 23:34:10 29° NW 23:37:00 10° NNW visible
01 May 5.3 21:33:49 10° ENE 21:33:49 10° ENE 21:34:41 10° NE visible
01 May 4.3 23:15:20 39° NNW 23:15:20 39° NNW 23:18:40 10° NNW visible
02 May 4.0 22:56:29 44° N 22:56:29 44° N 23:00:08 10° N visible
03 May 4.0 22:37:38 38° NE 22:37:38 38° NE 22:41:26 10° N visible
04 May 5.8 00:19:09 12° WNW 00:19:09 12° WNW 00:20:00 10° NW visible
04 May 4.3 22:18:48 28° NE 22:18:48 28° NE 22:22:31 10° NNE visible
05 May 5.4 00:00:19 19° WNW 00:00:19 19° WNW 00:02:27 10° NW visible
05 May 4.7 21:59:57 20° ENE 21:59:57 20° ENE 22:03:20 10° NNE visible
05 May 4.8 23:41:28 29° NW 23:41:28 29° NW 23:44:28 10° NNW visible
06 May 5.1 21:41:07 13° ENE 21:41:14 13° ENE 21:43:32 10° NE visible
06 May 4.3 23:22:38 41° NW 23:22:38 41° NW 23:26:12 10° NNW visible
07 May 3.8 23:03:47 50° N 23:03:47 50° N 23:07:45 10° N visible
08 May 3.8 22:44:56 46° NNE 22:44:56 46° NNE 22:49:07 10° N visible
